Location: Unspecified
(0.0000°N, 0.0000°E)
Time: 07:21:23
(UTC+00:00)

S-56A Canister/Altair - Pass Details

Date: 31 May 2024
Orbit: 637 x 2489 km, 38.9° (Epoch: 22 June)

Event Time Altitude Azimuth Distance (km) Brightness Sun altitude
Rises 21:08:15 0° 196° (SSW) 4,395 - -43.2°
Reaches altitude 10° 21:12:16 10° 178° (S) 3,753 - -44.0°
Maximum altitude 21:18:44 19° 137° (SE) 3,590 - -45.4°
Drops below altitude 10° 21:26:36 10° 99° (E) 4,711 - -47.1°
Sets 21:32:32 0° 83° (E) 5,967 - -48.3°
